Volver al catálogo

STARLINK-2648

ActivoComunicacionesVLEO
NORAD 48679·PAYLOAD·🇺🇸 United States

Lanzado May 26, 2021 desde Cape Canaveral Space Force Station

Loading…

Próximos Pases (próximas 24 horas)

TLE

ActualizadoSource: CelesTrak SupGP

Época: Sep 15, 2026, 02:25 UTC

1 48679C 21044AT  26258.10118056  .00043438  00000+0  13972-2 0  2583
2 48679  53.1585 313.9488 0001125  82.3904 323.4076 15.31673379    15

Sigue STARLINK-2648 en tiempo real con AllMySat

Download on the App Store